Observation Tools

Bald cypress Photo courtesy of David K. Northington, Lady Bird WildflowerCenter, www.wildflower.org.

Bald cypress (Taxodium distichum)


Also Known As: Swamp cypress, Gulf cypress, Red cypress, White cypress, Pond cypress
Plant Family: Cypress (Cupressaceae)
Project BudBurst Plant Group: Deciduous Trees and Shrubs

Identification Hints: The flat deciduous needles distinguish bald cypress from most other conifers. The ornamental dawn cedar (Metasequoia glyptostroboides) is similar in appearance to small bald cypresses but has branchlets and needles arranged opposite (rather than alternate as found in baldcypress).

Did you Know? They are called 'bald' because of their deciduous nature which is unusual in conifers. Because it is resistant to wood-rotting fungi, bald cypress is valued as softwoood lumber for shingles, trim, andespecially for greenhouse benches and racks. Cypress swamps provide important habitat for endangered species like limpkins and wood storks. Cypress swamps store flood waters, serve as recharge areas for ground water, and filter pollutants from surface water. It is often planted as an ornamental tree. Trees can live over 1,200 years.


Live Map for Bald cypress

Other years available for viewing:

Below you can view all observations that have been reported in for Bald cypress (If the map below is empty then there have not been any observations reported.)

Use the navigation buttons on the left to zoom in/out and pan around. Click on each place marker to get detail information about that observation.

Leaf/Needles/Stalk = Leaf/Needles/Stalk Flower = Flower Pollen = Pollen Fruiting = Fruiting Color = Color

--Back to Top--

close help window button

The table below displays all the data that has been submitted to Project BudBurst. By default, the data is sorted by the date on which the phenophase occurred. Clicking the up and down arrows next to each column name allows you to sort on any value. If there have been more than 10 observations submitted, you can choose how many to display at a time using the "Show __ entries" control. You can also page through the data using the previous and next buttons at the bottom right of the table.

The Search box allows you to search all of the data. Searching by date, species, phenophase, etc. is easy—just start typing and the table will immediately change to contain only observations that contain your search phrase. Do you want to see only 2012 observations? Just type "2012" in the search box. Only want to see maples? Enter "Acer." You can combine searches, too! Searching for "acer 2012" will narrow your results to only the maples that were observed in 2012 (assuming that any observations exist, of course).

Once you have your results in the order desired, you can use any of the buttons above the search box to copy the results to the clipboard; save them as a text, or spreadsheet; or even print them from your browser!

Observational data for Bald cypress:

help button
Date Contributor Common Name Species Phenophase Latitude Longitude Obs#
Thu Apr 23 00:00:00 GMT 2009 coralberry Bald cypress Taxodium distichum First Leaf 35.965100000000000 -78.459000000000000 6485
Thu May 14 00:00:00 GMT 2009 skflax Bald cypress Taxodium distichum First Leaf 42.059500000000000 -87.718500000000000 7515
Sat May 16 00:00:00 GMT 2009 coralberry Bald cypress Taxodium distichum All Leaves Unfolded 35.965100000000000 -78.459000000000000 7527
Mon May 25 00:00:00 GMT 2009 dpopephenology Bald cypress Taxodium distichum All Leaves Unfolded 39.973300000000000 -82.802900000000000 8222
Sun May 10 00:00:00 GMT 2009 dpopephenology Bald cypress Taxodium distichum First Leaf 39.973300000000000 -82.802900000000000 8223
Sat May 23 00:00:00 GMT 2009 skflax Bald cypress Taxodium distichum All Leaves Unfolded 42.059500000000000 -87.718500000000000 8304
Fri Oct 23 00:00:00 GMT 2009 skflax Bald cypress Taxodium distichum 50% Color 42.059500000000000 -87.718500000000000 8870
Sat Nov 14 00:00:00 GMT 2009 skflax Bald cypress Taxodium distichum 50% Leaf Fall 42.059500000000000 -87.718500000000000 8955
Wed May 05 00:00:00 GMT 2010 skflax Bald cypress Taxodium distichum First Leaf 42.059500000000000 -87.718500000000000 10706
Tue May 25 00:00:00 GMT 2010 skflax Bald cypress Taxodium distichum All Leaves Unfolded 42.059500000000000 -87.718500000000000 10707
Tue Oct 19 00:00:00 GMT 2010 skflax Bald cypress Taxodium distichum 50% Color 42.059500000000000 -87.718500000000000 11381
Fri Feb 18 00:00:00 GMT 2011 SchulteN Bald cypress Taxodium distichum First Flower 36.100000000000000 -85.500000000000000 11796
Tue Mar 01 00:00:00 GMT 2011 SchulteN Bald cypress Taxodium distichum First Leaf 36.100000000000000 -85.500000000000000 12185
Sat Apr 23 00:00:00 GMT 2011 SchulteN Bald cypress Taxodium distichum All Leaves Unfolded 36.100000000000000 -85.500000000000000 12186
Tue Mar 08 00:00:00 GMT 2011 SchulteN Bald cypress Taxodium distichum First Leaf 36.171300000000000 -85.502700000000000 12187
Tue Mar 01 00:00:00 GMT 2011 SchulteN Bald cypress Taxodium distichum First Leaf 36.173700000000000 -85.503500000000000 12188
Sat Apr 23 00:00:00 GMT 2011 SchulteN Bald cypress Taxodium distichum All Leaves Unfolded 36.173700000000000 -85.503500000000000 12189
Fri Apr 29 00:00:00 GMT 2011 kloud Bald cypress Taxodium distichum First Leaf 40.500700000000000 -88.989300000000000 12250
Wed May 04 00:00:00 GMT 2011 kloud Bald cypress Taxodium distichum All Leaves Unfolded 40.500700000000000 -88.989300000000000 12293
Tue May 10 00:00:00 GMT 2011 skflax Bald cypress Taxodium distichum First Leaf 42.059500000000000 -87.718500000000000 12481
Fri May 20 00:00:00 GMT 2011 Derek McKay Bald cypress Taxodium distichum First Leaf 45.317400000000000 -92.158900000000000 12721
Sat May 28 00:00:00 GMT 2011 Derek McKay Bald cypress Taxodium distichum All Leaves Unfolded 45.317400000000000 -92.158900000000000 12722
Sat May 28 00:00:00 GMT 2011 Joseph Boland Bald cypress Taxodium distichum First Leaf 39.761200000000000 -105.230000000000000 12876
Sun Jun 05 00:00:00 GMT 2011 Joseph Boland Bald cypress Taxodium distichum All Leaves Unfolded 39.761200000000000 -105.230000000000000 12877
Thu Oct 20 00:00:00 GMT 2011 skflax Bald cypress Taxodium distichum 50% Color 42.059500000000000 -87.718500000000000 13806
Sun Nov 06 00:00:00 GMT 2011 cathy001 Bald cypress Taxodium distichum 50% Color 35.901000000000000 -78.905000000000000 13834
Sat Nov 19 00:00:00 GMT 2011 cathy001 Bald cypress Taxodium distichum 50% Leaf Fall 35.901000000000000 -78.905000000000000 13873
Wed Mar 28 00:00:00 GMT 2012 sonyaguidry@yahoo.com Bald cypress Taxodium distichum First Leaf 29.042400000000000 -80.939500000000000 14590
Tue Mar 20 00:00:00 GMT 2012 cathy001 Bald cypress Taxodium distichum First Leaf 35.901000000000000 -78.905000000000000 14656
Wed Apr 11 00:00:00 GMT 2012 matt.k.rhodes Bald cypress Taxodium distichum Leaves Unfolding (Early) 42.150500000000000 -87.782300000000000 14941
Sun Apr 15 00:00:00 GMT 2012 skflax Bald cypress Taxodium distichum First Leaf 42.059500000000000 -87.718500000000000 14995
Tue Apr 17 00:00:00 GMT 2012 lduncan Bald cypress Taxodium distichum Leaves Unfolding (Early) 34.674300000000000 -82.822900000000000 15188
Wed Apr 25 00:00:00 GMT 2012 Joseph Boland Bald cypress Taxodium distichum First Leaf 39.761200000000000 -105.230000000000000 15243
Wed May 09 00:00:00 GMT 2012 Joseph Boland Bald cypress Taxodium distichum All Leaves Unfolded 39.761200000000000 -105.230000000000000 15592
Thu May 10 00:00:00 GMT 2012 victocam_Brooklyn_Homeschool_reporter1 Bald cypress Taxodium distichum First Leaf 40.667700000000000 -73.961800000000000 15680
Thu May 10 00:00:00 GMT 2012 victocam Bald cypress Taxodium distichum First Leaf 40.667700000000000 -73.961800000000000 15688
Thu May 10 00:00:00 GMT 2012 victocam Bald cypress Taxodium distichum First Leaf 40.667700000000000 -73.961800000000000 15769
Thu May 10 00:00:00 GMT 2012 victocam_Brooklyn_Homeschool_reporter4 Bald cypress Taxodium distichum Leaves Unfolding (Late) 40.667700000000000 -73.961800000000000 15809
Thu May 10 00:00:00 GMT 2012 victocam Bald cypress Taxodium distichum All Leaves Unfolded 40.667700000000000 -73.961800000000000 15823
Tue Sep 04 00:00:00 GMT 2012 ajprender Bald cypress Taxodium distichum Leaves Dropping (Early) 42.602100000000000 -83.122800000000000 16470
Sun Oct 21 00:00:00 GMT 2012 Joseph Boland Bald cypress Taxodium distichum 50% Color 39.761200000000000 -105.230000000000000 17192
Wed Nov 14 00:00:00 GMT 2012 bbrfmary Bald cypress Taxodium distichum First Leaf 36.725700000000000 -75.987100000000000 17532
Mon Oct 15 00:00:00 GMT 2012 susanalbert Bald cypress Taxodium distichum 50% Color 30.746000000000000 -98.017700000000000 17578
Sat Dec 01 00:00:00 GMT 2012 susanalbert Bald cypress Taxodium distichum 50% Leaf Fall 30.746000000000000 -98.017700000000000 17579
Sun Jan 20 00:00:00 GMT 2013 19251925 Bald cypress Taxodium distichum Leaves Unfolding (Early) 27.992000000000000 -81.852300000000000 18099
Mon Mar 18 00:00:00 GMT 2013 rogersm Bald cypress Taxodium distichum Bud Burst 30.633700000000000 -97.667000000000000 18363
Wed Mar 20 00:00:00 GMT 2013 rogersm Bald cypress Taxodium distichum First Leaf 30.633700000000000 -97.667000000000000 18364
Mon Jan 21 00:00:00 GMT 2013 ahublar7 Bald cypress Taxodium distichum First Leaf 39.164200000000000 -86.512100000000000 18542
Thu Mar 28 00:00:00 GMT 2013 ahublar7 Bald cypress Taxodium distichum Full Flower 39.164200000000000 -86.512100000000000 18543
Wed Apr 03 00:00:00 GMT 2013 akbiddle Bald cypress Taxodium distichum Flowers (Early) 39.148900000000000 -86.526900000000000 18614
Mon Feb 18 00:00:00 GMT 2013 tbiehl Bald cypress Taxodium distichum First Leaf 27.999400000000000 -81.872700000000000 18788
Tue Jan 29 00:00:00 GMT 2013 janspaugh Bald cypress Taxodium distichum Bud Burst 27.989700000000000 -81.857200000000000 19156
Sun Mar 10 00:00:00 GMT 2013 janspaugh Bald cypress Taxodium distichum All Leaves Unfolded 27.989700000000000 -81.857200000000000 19157
Thu Mar 07 00:00:00 GMT 2013 rogersm Bald cypress Taxodium distichum Bud Burst 30.637300000000000 -97.665400000000000 19307
Sat Mar 09 00:00:00 GMT 2013 rogersm Bald cypress Taxodium distichum First Leaf 30.637300000000000 -97.665400000000000 19308
Wed Mar 27 00:00:00 GMT 2013 rogersm Bald cypress Taxodium distichum All Leaves Unfolded 30.637300000000000 -97.665400000000000 19309
Wed Mar 27 00:00:00 GMT 2013 rogersm Bald cypress Taxodium distichum Bud Burst 30.637400000000000 -97.664800000000000 19304
Sat Mar 30 00:00:00 GMT 2013 rogersm Bald cypress Taxodium distichum First Leaf 30.637400000000000 -97.664800000000000 19305
Mon Apr 15 00:00:00 GMT 2013 rogersm Bald cypress Taxodium distichum All Leaves Unfolded 30.637400000000000 -97.664800000000000 19306
Thu Apr 04 00:00:00 GMT 2013 rogersm Bald cypress Taxodium distichum All Leaves Unfolded 30.633700000000000 -97.667000000000000 19303
Fri May 03 00:00:00 GMT 2013 skflax Bald cypress Taxodium distichum Bud Burst 42.059500000000000 -87.718500000000000 20095
Mon Nov 11 00:00:00 GMT 2013 Bethbiology Bald cypress Taxodium distichum 50% Color 39.164900000000000 -86.521100000000000 23229
Fri Sep 20 00:00:00 GMT 2013 Bethbiology Bald cypress Taxodium distichum Leaves Changing Color (Early) 39.164900000000000 -86.521100000000000 23227
Mon Dec 09 00:00:00 GMT 2013 mullentr Bald cypress Taxodium distichum Leaves Unfolding (Early) 34.036800000000000 -118.443000000000000 24327
Wed Nov 06 00:00:00 GMT 2013 lakekatherine Bald cypress Taxodium distichum Leaves Unfolding (Late) 41.677000000000000 -87.801600000000000 24944
Wed Nov 06 00:00:00 GMT 2013 lakekatherine Bald cypress Taxodium distichum Leaves Changing Color (Late) 41.677000000000000 -87.801600000000000 24945
Wed Nov 06 00:00:00 GMT 2013 lakekatherine Bald cypress Taxodium distichum Leaves Dropping (Early) 41.677000000000000 -87.801600000000000 24946
Wed Nov 06 00:00:00 GMT 2013 lakekatherine Bald cypress Taxodium distichum Flowers (None) 41.677000000000000 -87.801600000000000 24947
Wed Nov 06 00:00:00 GMT 2013 lakekatherine Bald cypress Taxodium distichum Fruit (Late) 41.677000000000000 -87.801600000000000 24948
Mon Feb 17 00:00:00 GMT 2014 melissaburt Bald cypress Taxodium distichum Leaves Unfolding (None) 35.814800000000000 -89.217900000000000 25416
Mon Feb 17 00:00:00 GMT 2014 melissaburt Bald cypress Taxodium distichum Leaves Changing Color (None) 35.814800000000000 -89.217900000000000 25417
Mon Feb 17 00:00:00 GMT 2014 melissaburt Bald cypress Taxodium distichum Leaves Dropping (None) 35.814800000000000 -89.217900000000000 25418
Mon Feb 17 00:00:00 GMT 2014 melissaburt Bald cypress Taxodium distichum Flowers (None) 35.814800000000000 -89.217900000000000 25419
Mon Feb 17 00:00:00 GMT 2014 melissaburt Bald cypress Taxodium distichum Fruit (Late) 35.814800000000000 -89.217900000000000 25420
Mon Feb 17 00:00:00 GMT 2014 melissaburt Bald cypress Taxodium distichum Leaves Unfolding (None) 35.814800000000000 -89.217900000000000 25411
Mon Feb 17 00:00:00 GMT 2014 melissaburt Bald cypress Taxodium distichum Leaves Changing Color (None) 35.814800000000000 -89.217900000000000 25412
Mon Feb 17 00:00:00 GMT 2014 melissaburt Bald cypress Taxodium distichum Leaves Dropping (None) 35.814800000000000 -89.217900000000000 25413
Mon Feb 17 00:00:00 GMT 2014 melissaburt Bald cypress Taxodium distichum Flowers (None) 35.814800000000000 -89.217900000000000 25414
Mon Feb 17 00:00:00 GMT 2014 melissaburt Bald cypress Taxodium distichum Fruit (None) 35.814800000000000 -89.217900000000000 25415
Sat May 10 00:00:00 GMT 2014 skflax Bald cypress Taxodium distichum Bud Burst 42.059500000000000 -87.718500000000000 31892
Thu Sep 11 00:00:00 GMT 2014 jlsnyder335_4H_reporter18 Bald cypress Taxodium distichum Leaves Unfolding (Late) 36.066410000000000 -79.357750000000000 35267
Thu Sep 11 00:00:00 GMT 2014 jlsnyder335_4H_reporter18 Bald cypress Taxodium distichum Leaves Changing Color (None) 36.066410000000000 -79.357750000000000 35268
Thu Sep 11 00:00:00 GMT 2014 jlsnyder335_4H_reporter18 Bald cypress Taxodium distichum Leaves Dropping (None) 36.066410000000000 -79.357750000000000 35269
Thu Sep 11 00:00:00 GMT 2014 jlsnyder335_4H_reporter18 Bald cypress Taxodium distichum Flowers (None) 36.066410000000000 -79.357750000000000 35270
Thu Sep 11 00:00:00 GMT 2014 jlsnyder335_4H_reporter18 Bald cypress Taxodium distichum Fruit (None) 36.066410000000000 -79.357750000000000 35271
Wed Oct 15 00:00:00 GMT 2014 KChapman Bald cypress Taxodium distichum Leaves Unfolding (Late) 41.676944000000000 -87.801389000000000 37631
Wed Oct 15 00:00:00 GMT 2014 KChapman Bald cypress Taxodium distichum Leaves Changing Color (Early) 41.676944000000000 -87.801389000000000 37632
Wed Oct 15 00:00:00 GMT 2014 KChapman Bald cypress Taxodium distichum Leaves Dropping (None) 41.676944000000000 -87.801389000000000 37633
Wed Oct 15 00:00:00 GMT 2014 KChapman Bald cypress Taxodium distichum Flowers (None) 41.676944000000000 -87.801389000000000 37634
Wed Oct 15 00:00:00 GMT 2014 KChapman Bald cypress Taxodium distichum Fruit (None) 41.676944000000000 -87.801389000000000 37635
Wed Oct 22 00:00:00 GMT 2014 MarshallFoundation Bald cypress Taxodium distichum Leaves Unfolding (Late) 26.498400000000000 -80.205760000000000 39232
Wed Oct 22 00:00:00 GMT 2014 MarshallFoundation Bald cypress Taxodium distichum Leaves Changing Color (Middle) 26.498400000000000 -80.205760000000000 39233
Wed Oct 22 00:00:00 GMT 2014 MarshallFoundation Bald cypress Taxodium distichum Leaves Dropping (Middle) 26.498400000000000 -80.205760000000000 39234
Wed Oct 22 00:00:00 GMT 2014 MarshallFoundation Bald cypress Taxodium distichum Flowers (Middle) 26.498400000000000 -80.205760000000000 39235
Wed Oct 22 00:00:00 GMT 2014 MarshallFoundation Bald cypress Taxodium distichum Fruit (Early) 26.498400000000000 -80.205760000000000 39236
Sat Oct 25 00:00:00 GMT 2014 MarshallFoundation Bald cypress Taxodium distichum Leaves Unfolding (Late) 26.497269000000000 -80.214701000000000 39534
Sat Oct 25 00:00:00 GMT 2014 MarshallFoundation Bald cypress Taxodium distichum Leaves Changing Color (Early) 26.497269000000000 -80.214701000000000 39535
Sat Oct 25 00:00:00 GMT 2014 MarshallFoundation Bald cypress Taxodium distichum Leaves Dropping (Early) 26.497269000000000 -80.214701000000000 39536
Sat Oct 25 00:00:00 GMT 2014 MarshallFoundation Bald cypress Taxodium distichum Flowers (Late) 26.497269000000000 -80.214701000000000 39537
Sat Oct 25 00:00:00 GMT 2014 MarshallFoundation Bald cypress Taxodium distichum Fruit (Middle) 26.497269000000000 -80.214701000000000 39538
Fri Oct 31 00:00:00 GMT 2014 MarshallFoundation Bald cypress Taxodium distichum Leaves Unfolding (Middle) 26.497269000000000 -80.214701000000000 39678
Fri Oct 31 00:00:00 GMT 2014 MarshallFoundation Bald cypress Taxodium distichum Leaves Changing Color (None) 26.497269000000000 -80.214701000000000 39679
Fri Oct 31 00:00:00 GMT 2014 MarshallFoundation Bald cypress Taxodium distichum Leaves Dropping (Early) 26.497269000000000 -80.214701000000000 39680
Fri Oct 31 00:00:00 GMT 2014 MarshallFoundation Bald cypress Taxodium distichum Flowers (None) 26.497269000000000 -80.214701000000000 39681
Fri Oct 31 00:00:00 GMT 2014 MarshallFoundation Bald cypress Taxodium distichum Fruit (None) 26.497269000000000 -80.214701000000000 39682
Fri Oct 31 00:00:00 GMT 2014 MarshallFoundation Bald cypress Taxodium distichum Leaves Unfolding (Middle) 26.497269000000000 -80.214701000000000 39673
Fri Oct 31 00:00:00 GMT 2014 MarshallFoundation Bald cypress Taxodium distichum Leaves Changing Color (Early) 26.497269000000000 -80.214701000000000 39674
Fri Oct 31 00:00:00 GMT 2014 MarshallFoundation Bald cypress Taxodium distichum Leaves Dropping (Middle) 26.497269000000000 -80.214701000000000 39675
Fri Oct 31 00:00:00 GMT 2014 MarshallFoundation Bald cypress Taxodium distichum Flowers (None) 26.497269000000000 -80.214701000000000 39676
Fri Oct 31 00:00:00 GMT 2014 MarshallFoundation Bald cypress Taxodium distichum Fruit (None) 26.497269000000000 -80.214701000000000 39677
Fri Oct 31 00:00:00 GMT 2014 MarshallFoundation Bald cypress Taxodium distichum Leaves Unfolding (None) 26.497269000000000 -80.214701000000000 39668
Fri Oct 31 00:00:00 GMT 2014 MarshallFoundation Bald cypress Taxodium distichum Leaves Changing Color (Early) 26.497269000000000 -80.214701000000000 39669
Fri Oct 31 00:00:00 GMT 2014 MarshallFoundation Bald cypress Taxodium distichum Leaves Dropping (Early) 26.497269000000000 -80.214701000000000 39670
Fri Oct 31 00:00:00 GMT 2014 MarshallFoundation Bald cypress Taxodium distichum Flowers (None) 26.497269000000000 -80.214701000000000 39671
Fri Oct 31 00:00:00 GMT 2014 MarshallFoundation Bald cypress Taxodium distichum Fruit (None) 26.497269000000000 -80.214701000000000 39672
Sat Oct 25 00:00:00 GMT 2014 MarshallFoundation Bald cypress Taxodium distichum Leaves Unfolding (Early) 26.497269000000000 -80.214701000000000 39618
Sat Oct 25 00:00:00 GMT 2014 MarshallFoundation Bald cypress Taxodium distichum Leaves Changing Color (None) 26.497269000000000 -80.214701000000000 39619
Sat Oct 25 00:00:00 GMT 2014 MarshallFoundation Bald cypress Taxodium distichum Leaves Dropping (Middle) 26.497269000000000 -80.214701000000000 39620
Sat Oct 25 00:00:00 GMT 2014 MarshallFoundation Bald cypress Taxodium distichum Flowers (Middle) 26.497269000000000 -80.214701000000000 39621
Sat Oct 25 00:00:00 GMT 2014 MarshallFoundation Bald cypress Taxodium distichum Fruit (Early) 26.497269000000000 -80.214701000000000 39622
Fri Oct 31 00:00:00 GMT 2014 MarshallFoundation Bald cypress Taxodium distichum Leaves Unfolding (Late) 26.497269000000000 -80.214701000000000 39643
Fri Oct 31 00:00:00 GMT 2014 MarshallFoundation Bald cypress Taxodium distichum Leaves Changing Color (Middle) 26.497269000000000 -80.214701000000000 39644
Fri Oct 31 00:00:00 GMT 2014 MarshallFoundation Bald cypress Taxodium distichum Leaves Dropping (Early) 26.497269000000000 -80.214701000000000 39645
Fri Oct 31 00:00:00 GMT 2014 MarshallFoundation Bald cypress Taxodium distichum Flowers (None) 26.497269000000000 -80.214701000000000 39646
Fri Oct 31 00:00:00 GMT 2014 MarshallFoundation Bald cypress Taxodium distichum Fruit (Middle) 26.497269000000000 -80.214701000000000 39647
Fri Oct 31 00:00:00 GMT 2014 MarshallFoundation Bald cypress Taxodium distichum Leaves Unfolding (Middle) 26.497269000000000 -80.214701000000000 39623
Fri Oct 31 00:00:00 GMT 2014 MarshallFoundation Bald cypress Taxodium distichum Leaves Changing Color (Early) 26.497269000000000 -80.214701000000000 39624
Fri Oct 31 00:00:00 GMT 2014 MarshallFoundation Bald cypress Taxodium distichum Leaves Dropping (None) 26.497269000000000 -80.214701000000000 39625
Fri Oct 31 00:00:00 GMT 2014 MarshallFoundation Bald cypress Taxodium distichum Flowers (Early) 26.497269000000000 -80.214701000000000 39626
Fri Oct 31 00:00:00 GMT 2014 MarshallFoundation Bald cypress Taxodium distichum Fruit (None) 26.497269000000000 -80.214701000000000 39627
Fri Oct 31 00:00:00 GMT 2014 MarshallFoundation Bald cypress Taxodium distichum Leaves Unfolding (Middle) 26.497269000000000 -80.214701000000000 39653
Fri Oct 31 00:00:00 GMT 2014 MarshallFoundation Bald cypress Taxodium distichum Leaves Changing Color (None) 26.497269000000000 -80.214701000000000 39654
Fri Oct 31 00:00:00 GMT 2014 MarshallFoundation Bald cypress Taxodium distichum Leaves Dropping (Early) 26.497269000000000 -80.214701000000000 39655
Fri Oct 31 00:00:00 GMT 2014 MarshallFoundation Bald cypress Taxodium distichum Flowers (None) 26.497269000000000 -80.214701000000000 39656
Fri Oct 31 00:00:00 GMT 2014 MarshallFoundation Bald cypress Taxodium distichum Fruit (None) 26.497269000000000 -80.214701000000000 39657
Fri Oct 31 00:00:00 GMT 2014 MarshallFoundation Bald cypress Taxodium distichum Leaves Unfolding (Middle) 26.497269000000000 -80.214701000000000 39663
Fri Oct 31 00:00:00 GMT 2014 MarshallFoundation Bald cypress Taxodium distichum Leaves Changing Color (None) 26.497269000000000 -80.214701000000000 39664
Fri Oct 31 00:00:00 GMT 2014 MarshallFoundation Bald cypress Taxodium distichum Leaves Dropping (Early) 26.497269000000000 -80.214701000000000 39665
Fri Oct 31 00:00:00 GMT 2014 MarshallFoundation Bald cypress Taxodium distichum Flowers (None) 26.497269000000000 -80.214701000000000 39666
Fri Oct 31 00:00:00 GMT 2014 MarshallFoundation Bald cypress Taxodium distichum Fruit (None) 26.497269000000000 -80.214701000000000 39667
Fri Oct 31 00:00:00 GMT 2014 MarshallFoundation Bald cypress Taxodium distichum Leaves Unfolding (Late) 26.497269000000000 -80.214701000000000 39648
Fri Oct 31 00:00:00 GMT 2014 MarshallFoundation Bald cypress Taxodium distichum Leaves Changing Color (None) 26.497269000000000 -80.214701000000000 39649
Fri Oct 31 00:00:00 GMT 2014 MarshallFoundation Bald cypress Taxodium distichum Leaves Dropping (Late) 26.497269000000000 -80.214701000000000 39650
Fri Oct 31 00:00:00 GMT 2014 MarshallFoundation Bald cypress Taxodium distichum Flowers (Middle) 26.497269000000000 -80.214701000000000 39651
Fri Oct 31 00:00:00 GMT 2014 MarshallFoundation Bald cypress Taxodium distichum Fruit (None) 26.497269000000000 -80.214701000000000 39652
Fri Oct 31 00:00:00 GMT 2014 MarshallFoundation Bald cypress Taxodium distichum Leaves Unfolding (Late) 26.497269000000000 -80.214701000000000 39638
Fri Oct 31 00:00:00 GMT 2014 MarshallFoundation Bald cypress Taxodium distichum Leaves Unfolding (Late) 26.497269000000000 -80.214701000000000 39633
Fri Oct 31 00:00:00 GMT 2014 MarshallFoundation Bald cypress Taxodium distichum Leaves Changing Color (None) 26.497269000000000 -80.214701000000000 39634
Fri Oct 31 00:00:00 GMT 2014 MarshallFoundation Bald cypress Taxodium distichum Leaves Changing Color (None) 26.497269000000000 -80.214701000000000 39639
Fri Oct 31 00:00:00 GMT 2014 MarshallFoundation Bald cypress Taxodium distichum Leaves Dropping (None) 26.497269000000000 -80.214701000000000 39640
Fri Oct 31 00:00:00 GMT 2014 MarshallFoundation Bald cypress Taxodium distichum Flowers (None) 26.497269000000000 -80.214701000000000 39641
Fri Oct 31 00:00:00 GMT 2014 MarshallFoundation Bald cypress Taxodium distichum Fruit (None) 26.497269000000000 -80.214701000000000 39642
Fri Oct 31 00:00:00 GMT 2014 MarshallFoundation Bald cypress Taxodium distichum Leaves Dropping (Middle) 26.497269000000000 -80.214701000000000 39635
Fri Oct 31 00:00:00 GMT 2014 MarshallFoundation Bald cypress Taxodium distichum Flowers (Early) 26.497269000000000 -80.214701000000000 39636
Fri Oct 31 00:00:00 GMT 2014 MarshallFoundation Bald cypress Taxodium distichum Fruit (Early) 26.497269000000000 -80.214701000000000 39637
Fri Oct 31 00:00:00 GMT 2014 MarshallFoundation Bald cypress Taxodium distichum Leaves Unfolding (Late) 26.497269000000000 -80.214701000000000 39628
Fri Oct 31 00:00:00 GMT 2014 MarshallFoundation Bald cypress Taxodium distichum Leaves Changing Color (None) 26.497269000000000 -80.214701000000000 39629
Fri Oct 31 00:00:00 GMT 2014 MarshallFoundation Bald cypress Taxodium distichum Leaves Dropping (Early) 26.497269000000000 -80.214701000000000 39630
Fri Oct 31 00:00:00 GMT 2014 MarshallFoundation Bald cypress Taxodium distichum Flowers (Middle) 26.497269000000000 -80.214701000000000 39631
Fri Oct 31 00:00:00 GMT 2014 MarshallFoundation Bald cypress Taxodium distichum Fruit (None) 26.497269000000000 -80.214701000000000 39632
Fri Oct 31 00:00:00 GMT 2014 MarshallFoundation Bald cypress Taxodium distichum Leaves Unfolding (Late) 26.497269000000000 -80.214701000000000 39683
Fri Oct 31 00:00:00 GMT 2014 MarshallFoundation Bald cypress Taxodium distichum Leaves Changing Color (None) 26.497269000000000 -80.214701000000000 39684
Fri Oct 31 00:00:00 GMT 2014 MarshallFoundation Bald cypress Taxodium distichum Leaves Dropping (Early) 26.497269000000000 -80.214701000000000 39685
Fri Oct 31 00:00:00 GMT 2014 MarshallFoundation Bald cypress Taxodium distichum Flowers (Early) 26.497269000000000 -80.214701000000000 39686
Fri Oct 31 00:00:00 GMT 2014 MarshallFoundation Bald cypress Taxodium distichum Fruit (Early) 26.497269000000000 -80.214701000000000 39687
Fri Oct 31 00:00:00 GMT 2014 MarshallFoundation Bald cypress Taxodium distichum Leaves Unfolding (Middle) 26.497269000000000 -80.214701000000000 39658
Fri Oct 31 00:00:00 GMT 2014 MarshallFoundation Bald cypress Taxodium distichum Leaves Changing Color (Early) 26.497269000000000 -80.214701000000000 39659
Fri Oct 31 00:00:00 GMT 2014 MarshallFoundation Bald cypress Taxodium distichum Leaves Dropping (Middle) 26.497269000000000 -80.214701000000000 39660
Fri Oct 31 00:00:00 GMT 2014 MarshallFoundation Bald cypress Taxodium distichum Flowers (None) 26.497269000000000 -80.214701000000000 39661
Fri Oct 31 00:00:00 GMT 2014 MarshallFoundation Bald cypress Taxodium distichum Fruit (None) 26.497269000000000 -80.214701000000000 39662
Wed Oct 22 00:00:00 GMT 2014 KChapman Bald cypress Taxodium distichum Leaves Unfolding (Late) 41.676944000000000 -87.801389000000000 39753
Wed Oct 22 00:00:00 GMT 2014 KChapman Bald cypress Taxodium distichum Leaves Changing Color (Middle) 41.676944000000000 -87.801389000000000 39754
Wed Oct 22 00:00:00 GMT 2014 KChapman Bald cypress Taxodium distichum Leaves Dropping (Early) 41.676944000000000 -87.801389000000000 39755
Wed Oct 22 00:00:00 GMT 2014 KChapman Bald cypress Taxodium distichum Flowers (None) 41.676944000000000 -87.801389000000000 39756
Wed Oct 22 00:00:00 GMT 2014 KChapman Bald cypress Taxodium distichum Fruit (None) 41.676944000000000 -87.801389000000000 39757
Mon Nov 24 00:00:00 GMT 2014 KChapman Bald cypress Taxodium distichum Leaves Unfolding (Late) 41.676944000000000 -87.801389000000000 42045
Mon Nov 24 00:00:00 GMT 2014 KChapman Bald cypress Taxodium distichum Leaves Changing Color (Late) 41.676944000000000 -87.801389000000000 42046
Mon Nov 24 00:00:00 GMT 2014 KChapman Bald cypress Taxodium distichum Leaves Dropping (Late) 41.676944000000000 -87.801389000000000 42047
Mon Nov 24 00:00:00 GMT 2014 KChapman Bald cypress Taxodium distichum Flowers (None) 41.676944000000000 -87.801389000000000 42048
Mon Nov 24 00:00:00 GMT 2014 KChapman Bald cypress Taxodium distichum Fruit (None) 41.676944000000000 -87.801389000000000 42049
Wed Nov 19 00:00:00 GMT 2014 KChapman Bald cypress Taxodium distichum Leaves Unfolding (Late) 41.676944000000000 -87.801389000000000 42035
Wed Nov 19 00:00:00 GMT 2014 KChapman Bald cypress Taxodium distichum Leaves Changing Color (Late) 41.676944000000000 -87.801389000000000 42036
Wed Nov 19 00:00:00 GMT 2014 KChapman Bald cypress Taxodium distichum Leaves Dropping (Late) 41.676944000000000 -87.801389000000000 42037
Wed Nov 19 00:00:00 GMT 2014 KChapman Bald cypress Taxodium distichum Flowers (None) 41.676944000000000 -87.801389000000000 42038
Wed Nov 19 00:00:00 GMT 2014 KChapman Bald cypress Taxodium distichum Fruit (None) 41.676944000000000 -87.801389000000000 42039
Wed Nov 05 00:00:00 GMT 2014 KChapman Bald cypress Taxodium distichum Leaves Unfolding (Late) 41.676944000000000 -87.802138900000000 42020
Wed Nov 05 00:00:00 GMT 2014 KChapman Bald cypress Taxodium distichum Leaves Changing Color (Late) 41.676944000000000 -87.802138900000000 42021
Wed Nov 05 00:00:00 GMT 2014 KChapman Bald cypress Taxodium distichum Leaves Dropping (Late) 41.676944000000000 -87.802138900000000 42022
Wed Nov 05 00:00:00 GMT 2014 KChapman Bald cypress Taxodium distichum Flowers (None) 41.676944000000000 -87.802138900000000 42023
Wed Nov 05 00:00:00 GMT 2014 KChapman Bald cypress Taxodium distichum Fruit (None) 41.676944000000000 -87.802138900000000 42024
Mon Mar 21 00:00:00 GMT 2016 MNC Bald cypress Taxodium distichum Bud Burst 29.663511000000000 -82.279272000000000 62827
Mon Mar 21 00:00:00 GMT 2016 MNC Bald cypress Taxodium distichum First Leaf 29.663511000000000 -82.279272000000000 62828
Fri Apr 08 00:00:00 GMT 2016 alilmeye Bald cypress Taxodium distichum Leaves Unfolding (Middle) 39.173182000000000 -86.509009000000000 63872
Fri Apr 08 00:00:00 GMT 2016 alilmeye Bald cypress Taxodium distichum Leaves Changing Color (None) 39.173182000000000 -86.509009000000000 63873
Fri Apr 08 00:00:00 GMT 2016 alilmeye Bald cypress Taxodium distichum Leaves Dropping (None) 39.173182000000000 -86.509009000000000 63874
Fri Apr 08 00:00:00 GMT 2016 alilmeye Bald cypress Taxodium distichum Flowers (None) 39.173182000000000 -86.509009000000000 63875
Fri Apr 08 00:00:00 GMT 2016 alilmeye Bald cypress Taxodium distichum Fruit (None) 39.173182000000000 -86.509009000000000 63876
Tue Jan 19 00:00:00 GMT 2016 Joirwhit Bald cypress Taxodium distichum 50% Leaf Fall 39.164108000000000 -86.526668000000000 64403
Tue Apr 19 00:00:00 GMT 2016 geniveve Bald cypress Taxodium distichum Leaves Unfolding (Early) 40.629390000000000 -73.938370000000000 64816
Tue Apr 19 00:00:00 GMT 2016 geniveve Bald cypress Taxodium distichum Leaves Changing Color (None) 40.629390000000000 -73.938370000000000 64817
Tue Apr 19 00:00:00 GMT 2016 geniveve Bald cypress Taxodium distichum Leaves Dropping (Middle) 40.629390000000000 -73.938370000000000 64818
Tue Apr 19 00:00:00 GMT 2016 geniveve Bald cypress Taxodium distichum Flowers (Early) 40.629390000000000 -73.938370000000000 64819
Tue Apr 19 00:00:00 GMT 2016 geniveve Bald cypress Taxodium distichum Fruit (Middle) 40.629390000000000 -73.938370000000000 64820
Mon Apr 18 00:00:00 GMT 2016 bthomps1 Bald cypress Taxodium distichum Bud Burst 38.195980000000000 -85.534280000000000 64892
Thu Apr 21 00:00:00 GMT 2016 bthomps1 Bald cypress Taxodium distichum First Leaf 38.195980000000000 -85.534280000000000 64893
Sat Apr 16 00:00:00 GMT 2016 Durk27 Bald cypress Taxodium distichum Leaves Unfolding (Early) 40.000000000000000 -100.000000000000000 65104
Sat Apr 16 00:00:00 GMT 2016 Durk27 Bald cypress Taxodium distichum Leaves Changing Color (None) 40.000000000000000 -100.000000000000000 65105
Sat Apr 16 00:00:00 GMT 2016 Durk27 Bald cypress Taxodium distichum Leaves Dropping (None) 40.000000000000000 -100.000000000000000 65106
Sat Apr 16 00:00:00 GMT 2016 Durk27 Bald cypress Taxodium distichum Flowers (None) 40.000000000000000 -100.000000000000000 65107
Sat Apr 16 00:00:00 GMT 2016 Durk27 Bald cypress Taxodium distichum Fruit (None) 40.000000000000000 -100.000000000000000 65108
Sun Apr 24 00:00:00 GMT 2016 skflax Bald cypress Taxodium distichum Bud Burst 42.059500000000000 -87.718500000000000 65882
Tue May 03 00:00:00 GMT 2016 skflax Bald cypress Taxodium distichum All Leaves Unfolded 42.059500000000000 -87.718500000000000 66490
Wed Jul 13 00:00:00 GMT 2016 MBGYouthandFamily Bald cypress Taxodium distichum Leaves Unfolding (Late) 38.611554400000000 -90.259511400000000 68831
Wed Jul 13 00:00:00 GMT 2016 MBGYouthandFamily Bald cypress Taxodium distichum Leaves Changing Color (None) 38.611554400000000 -90.259511400000000 68832
Wed Jul 13 00:00:00 GMT 2016 MBGYouthandFamily Bald cypress Taxodium distichum Leaves Dropping (None) 38.611554400000000 -90.259511400000000 68833
Wed Jul 13 00:00:00 GMT 2016 MBGYouthandFamily Bald cypress Taxodium distichum Flowers (None) 38.611554400000000 -90.259511400000000 68834
Wed Jul 13 00:00:00 GMT 2016 MBGYouthandFamily Bald cypress Taxodium distichum Fruit (None) 38.611554400000000 -90.259511400000000 68835
Wed Jul 13 00:00:00 GMT 2016 MBGYouthandFamily Bald cypress Taxodium distichum Leaves Unfolding (Late) 38.614211100000000 -90.258243700000000 68851
Wed Jul 13 00:00:00 GMT 2016 MBGYouthandFamily Bald cypress Taxodium distichum Leaves Changing Color (None) 38.614211100000000 -90.258243700000000 68852
Wed Jul 13 00:00:00 GMT 2016 MBGYouthandFamily Bald cypress Taxodium distichum Leaves Dropping (None) 38.614211100000000 -90.258243700000000 68853
Wed Jul 13 00:00:00 GMT 2016 MBGYouthandFamily Bald cypress Taxodium distichum Flowers (None) 38.614211100000000 -90.258243700000000 68854
Wed Jul 13 00:00:00 GMT 2016 MBGYouthandFamily Bald cypress Taxodium distichum Fruit (None) 38.614211100000000 -90.258243700000000 68855
Tue Jul 12 00:00:00 GMT 2016 MBGYouthandFamily Bald cypress Taxodium distichum Leaves Unfolding (Late) 38.614185200000000 -90.258003000000000 68856
Tue Jul 12 00:00:00 GMT 2016 MBGYouthandFamily Bald cypress Taxodium distichum Leaves Changing Color (None) 38.614185200000000 -90.258003000000000 68857
Tue Jul 12 00:00:00 GMT 2016 MBGYouthandFamily Bald cypress Taxodium distichum Leaves Dropping (None) 38.614185200000000 -90.258003000000000 68858
Tue Jul 12 00:00:00 GMT 2016 MBGYouthandFamily Bald cypress Taxodium distichum Flowers (None) 38.614185200000000 -90.258003000000000 68859
Tue Jul 12 00:00:00 GMT 2016 MBGYouthandFamily Bald cypress Taxodium distichum Fruit (None) 38.614185200000000 -90.258003000000000 68860
Wed Aug 10 00:00:00 GMT 2016 MBGYouthandFamily Bald cypress Taxodium distichum Leaves Unfolding (Late) 38.611554400000000 -90.259511400000000 69345
Wed Aug 10 00:00:00 GMT 2016 MBGYouthandFamily Bald cypress Taxodium distichum Leaves Changing Color (None) 38.611554400000000 -90.259511400000000 69346
Wed Aug 10 00:00:00 GMT 2016 MBGYouthandFamily Bald cypress Taxodium distichum Leaves Dropping (None) 38.611554400000000 -90.259511400000000 69347
Wed Aug 10 00:00:00 GMT 2016 MBGYouthandFamily Bald cypress Taxodium distichum Flowers (None) 38.611554400000000 -90.259511400000000 69348
Wed Aug 10 00:00:00 GMT 2016 MBGYouthandFamily Bald cypress Taxodium distichum Fruit (None) 38.611554400000000 -90.259511400000000 69349
Tue Aug 09 00:00:00 GMT 2016 MBGYouthandFamily Bald cypress Taxodium distichum Leaves Unfolding (Late) 38.614211000000000 -90.258243700000000 69357
Tue Aug 09 00:00:00 GMT 2016 MBGYouthandFamily Bald cypress Taxodium distichum Leaves Changing Color (None) 38.614211000000000 -90.258243700000000 69358
Tue Aug 09 00:00:00 GMT 2016 MBGYouthandFamily Bald cypress Taxodium distichum Leaves Dropping (None) 38.614211000000000 -90.258243700000000 69359
Tue Aug 09 00:00:00 GMT 2016 MBGYouthandFamily Bald cypress Taxodium distichum Flowers (None) 38.614211000000000 -90.258243700000000 69360
Tue Aug 09 00:00:00 GMT 2016 MBGYouthandFamily Bald cypress Taxodium distichum Fruit (Early) 38.614211000000000 -90.258243700000000 69361
Tue Aug 09 00:00:00 GMT 2016 MBGYouthandFamily Bald cypress Taxodium distichum Leaves Unfolding (Late) 38.614185200000000 -90.258003000000000 69372
Tue Aug 09 00:00:00 GMT 2016 MBGYouthandFamily Bald cypress Taxodium distichum Leaves Changing Color (Early) 38.614185200000000 -90.258003000000000 69373
Tue Aug 09 00:00:00 GMT 2016 MBGYouthandFamily Bald cypress Taxodium distichum Leaves Dropping (Early) 38.614185200000000 -90.258003000000000 69374
Tue Aug 09 00:00:00 GMT 2016 MBGYouthandFamily Bald cypress Taxodium distichum Flowers (None) 38.614185200000000 -90.258003000000000 69375
Tue Aug 09 00:00:00 GMT 2016 MBGYouthandFamily Bald cypress Taxodium distichum Fruit (None) 38.614185200000000 -90.258003000000000 69376
Wed Aug 17 00:00:00 GMT 2016 MBGYouthandFamily Bald cypress Taxodium distichum Leaves Unfolding (None) 38.614211100000000 -90.258243700000000 69483
Wed Aug 17 00:00:00 GMT 2016 MBGYouthandFamily Bald cypress Taxodium distichum Leaves Changing Color (None) 38.614211100000000 -90.258243700000000 69484
Wed Aug 17 00:00:00 GMT 2016 MBGYouthandFamily Bald cypress Taxodium distichum Leaves Dropping (None) 38.614211100000000 -90.258243700000000 69485
Wed Aug 17 00:00:00 GMT 2016 MBGYouthandFamily Bald cypress Taxodium distichum Flowers (None) 38.614211100000000 -90.258243700000000 69486
Wed Aug 17 00:00:00 GMT 2016 MBGYouthandFamily Bald cypress Taxodium distichum Fruit (None) 38.614211100000000 -90.258243700000000 69487
Wed Aug 17 00:00:00 GMT 2016 MBGYouthandFamily Bald cypress Taxodium distichum Leaves Unfolding (None) 38.614185000000000 -90.258003000000000 69488
Wed Aug 17 00:00:00 GMT 2016 MBGYouthandFamily Bald cypress Taxodium distichum Leaves Changing Color (None) 38.614185000000000 -90.258003000000000 69489
Wed Aug 17 00:00:00 GMT 2016 MBGYouthandFamily Bald cypress Taxodium distichum Leaves Dropping (None) 38.614185000000000 -90.258003000000000 69490
Wed Aug 17 00:00:00 GMT 2016 MBGYouthandFamily Bald cypress Taxodium distichum Flowers (None) 38.614185000000000 -90.258003000000000 69491
Wed Aug 17 00:00:00 GMT 2016 MBGYouthandFamily Bald cypress Taxodium distichum Fruit (None) 38.614185000000000 -90.258003000000000 69492
Wed Aug 17 00:00:00 GMT 2016 MBGYouthandFamily Bald cypress Taxodium distichum Leaves Unfolding (None) 38.611554400000000 -90.259511400000000 69508
Wed Aug 17 00:00:00 GMT 2016 MBGYouthandFamily Bald cypress Taxodium distichum Leaves Changing Color (None) 38.611554400000000 -90.259511400000000 69509
Wed Aug 17 00:00:00 GMT 2016 MBGYouthandFamily Bald cypress Taxodium distichum Leaves Dropping (None) 38.611554400000000 -90.259511400000000 69510
Wed Aug 17 00:00:00 GMT 2016 MBGYouthandFamily Bald cypress Taxodium distichum Flowers (None) 38.611554400000000 -90.259511400000000 69511
Wed Aug 17 00:00:00 GMT 2016 MBGYouthandFamily Bald cypress Taxodium distichum Fruit (None) 38.611554400000000 -90.259511400000000 69512
Mon Aug 29 00:00:00 GMT 2016 MBGYouthandFamily Bald cypress Taxodium distichum Leaves Unfolding (None) 38.614211100000000 -90.258243700000000 69565
Mon Aug 29 00:00:00 GMT 2016 MBGYouthandFamily Bald cypress Taxodium distichum Leaves Changing Color (None) 38.614211100000000 -90.258243700000000 69566
Mon Aug 29 00:00:00 GMT 2016 MBGYouthandFamily Bald cypress Taxodium distichum Leaves Dropping (None) 38.614211100000000 -90.258243700000000 69567
Mon Aug 29 00:00:00 GMT 2016 MBGYouthandFamily Bald cypress Taxodium distichum Flowers (None) 38.614211100000000 -90.258243700000000 69568
Mon Aug 29 00:00:00 GMT 2016 MBGYouthandFamily Bald cypress Taxodium distichum Fruit (None) 38.614211100000000 -90.258243700000000 69569
Mon Aug 29 00:00:00 GMT 2016 MBGYouthandFamily Bald cypress Taxodium distichum Leaves Unfolding (Late) 38.614185200000000 -90.258003000000000 69570
Mon Aug 29 00:00:00 GMT 2016 MBGYouthandFamily Bald cypress Taxodium distichum Leaves Changing Color (Early) 38.614185200000000 -90.258003000000000 69571
Mon Aug 29 00:00:00 GMT 2016 MBGYouthandFamily Bald cypress Taxodium distichum Leaves Dropping (Early) 38.614185200000000 -90.258003000000000 69572
Mon Aug 29 00:00:00 GMT 2016 MBGYouthandFamily Bald cypress Taxodium distichum Flowers (None) 38.614185200000000 -90.258003000000000 69573
Mon Aug 29 00:00:00 GMT 2016 MBGYouthandFamily Bald cypress Taxodium distichum Fruit (None) 38.614185200000000 -90.258003000000000 69574
Mon Aug 29 00:00:00 GMT 2016 MBGYouthandFamily Bald cypress Taxodium distichum Leaves Unfolding (Late) 38.611554400000000 -90.259511400000000 69587
Mon Aug 29 00:00:00 GMT 2016 MBGYouthandFamily Bald cypress Taxodium distichum Leaves Changing Color (None) 38.611554400000000 -90.259511400000000 69588
Mon Aug 29 00:00:00 GMT 2016 MBGYouthandFamily Bald cypress Taxodium distichum Leaves Dropping (None) 38.611554400000000 -90.259511400000000 69589
Mon Aug 29 00:00:00 GMT 2016 MBGYouthandFamily Bald cypress Taxodium distichum Flowers (None) 38.611554400000000 -90.259511400000000 69590
Mon Aug 29 00:00:00 GMT 2016 MBGYouthandFamily Bald cypress Taxodium distichum Fruit (None) 38.611554400000000 -90.259511400000000 69591
Mon Sep 26 00:00:00 GMT 2016 MBGYouthandFamily Bald cypress Taxodium distichum Leaves Unfolding (Late) 38.611554400000000 -90.259511400000000 70224
Mon Sep 26 00:00:00 GMT 2016 MBGYouthandFamily Bald cypress Taxodium distichum Leaves Changing Color (Early) 38.611554400000000 -90.259511400000000 70225
Mon Sep 26 00:00:00 GMT 2016 MBGYouthandFamily Bald cypress Taxodium distichum Leaves Dropping (None) 38.611554400000000 -90.259511400000000 70226
Mon Sep 26 00:00:00 GMT 2016 MBGYouthandFamily Bald cypress Taxodium distichum Flowers (None) 38.611554400000000 -90.259511400000000 70227
Mon Sep 26 00:00:00 GMT 2016 MBGYouthandFamily Bald cypress Taxodium distichum Fruit (None) 38.611554400000000 -90.259511400000000 70228
Mon Sep 26 00:00:00 GMT 2016 MBGYouthandFamily Bald cypress Taxodium distichum Leaves Unfolding (Late) 38.614185200000000 -90.258003000000000 70246
Mon Sep 26 00:00:00 GMT 2016 MBGYouthandFamily Bald cypress Taxodium distichum Leaves Changing Color (Early) 38.614185200000000 -90.258003000000000 70247
Mon Sep 26 00:00:00 GMT 2016 MBGYouthandFamily Bald cypress Taxodium distichum Leaves Dropping (Early) 38.614185200000000 -90.258003000000000 70248
Mon Sep 26 00:00:00 GMT 2016 MBGYouthandFamily Bald cypress Taxodium distichum Flowers (None) 38.614185200000000 -90.258003000000000 70249
Mon Sep 26 00:00:00 GMT 2016 MBGYouthandFamily Bald cypress Taxodium distichum Fruit (None) 38.614185200000000 -90.258003000000000 70250
Mon Sep 26 00:00:00 GMT 2016 MBGYouthandFamily Bald cypress Taxodium distichum Leaves Unfolding (Late) 38.614211100000000 -90.258243700000000 70251
Mon Sep 26 00:00:00 GMT 2016 MBGYouthandFamily Bald cypress Taxodium distichum Leaves Changing Color (None) 38.614211100000000 -90.258243700000000 70252
Mon Sep 26 00:00:00 GMT 2016 MBGYouthandFamily Bald cypress Taxodium distichum Leaves Dropping (None) 38.614211100000000 -90.258243700000000 70253
Mon Sep 26 00:00:00 GMT 2016 MBGYouthandFamily Bald cypress Taxodium distichum Flowers (None) 38.614211100000000 -90.258243700000000 70254
Mon Sep 26 00:00:00 GMT 2016 MBGYouthandFamily Bald cypress Taxodium distichum Fruit (None) 38.614211100000000 -90.258243700000000 70255
Fri Oct 21 00:00:00 GMT 2016 MBGYouthandFamily Bald cypress Taxodium distichum Leaves Unfolding (Late) 38.614211100000000 -90.258243700000000 71009
Fri Oct 21 00:00:00 GMT 2016 MBGYouthandFamily Bald cypress Taxodium distichum Leaves Changing Color (Early) 38.614211100000000 -90.258243700000000 71010
Fri Oct 21 00:00:00 GMT 2016 MBGYouthandFamily Bald cypress Taxodium distichum Leaves Dropping (Early) 38.614211100000000 -90.258243700000000 71011
Fri Oct 21 00:00:00 GMT 2016 MBGYouthandFamily Bald cypress Taxodium distichum Flowers (None) 38.614211100000000 -90.258243700000000 71012
Fri Oct 21 00:00:00 GMT 2016 MBGYouthandFamily Bald cypress Taxodium distichum Fruit (None) 38.614211100000000 -90.258243700000000 71013
Mon Oct 17 00:00:00 GMT 2016 MBGYouthandFamily Bald cypress Taxodium distichum Leaves Unfolding (None) 38.614185200000000 -90.258003000000000 71014
Mon Oct 17 00:00:00 GMT 2016 MBGYouthandFamily Bald cypress Taxodium distichum Leaves Changing Color (Early) 38.614185200000000 -90.258003000000000 71015
Mon Oct 17 00:00:00 GMT 2016 MBGYouthandFamily Bald cypress Taxodium distichum Leaves Dropping (Early) 38.614185200000000 -90.258003000000000 71016
Mon Oct 17 00:00:00 GMT 2016 MBGYouthandFamily Bald cypress Taxodium distichum Flowers (None) 38.614185200000000 -90.258003000000000 71017
Mon Oct 17 00:00:00 GMT 2016 MBGYouthandFamily Bald cypress Taxodium distichum Fruit (Early) 38.614185200000000 -90.258003000000000 71018
Mon Oct 17 00:00:00 GMT 2016 MBGYouthandFamily Bald cypress Taxodium distichum Leaves Unfolding (None) 38.611554000000000 -90.259511400000000 71033
Mon Oct 17 00:00:00 GMT 2016 MBGYouthandFamily Bald cypress Taxodium distichum Leaves Changing Color (Early) 38.611554000000000 -90.259511400000000 71034
Mon Oct 17 00:00:00 GMT 2016 MBGYouthandFamily Bald cypress Taxodium distichum Leaves Dropping (None) 38.611554000000000 -90.259511400000000 71035
Mon Oct 17 00:00:00 GMT 2016 MBGYouthandFamily Bald cypress Taxodium distichum Flowers (None) 38.611554000000000 -90.259511400000000 71036
Mon Oct 17 00:00:00 GMT 2016 MBGYouthandFamily Bald cypress Taxodium distichum Fruit (None) 38.611554000000000 -90.259511400000000 71037
Thu Oct 20 00:00:00 GMT 2016 bthomps1 Bald cypress Taxodium distichum 50% Color 38.195980000000000 -85.534280000000000 72635
Fri Nov 04 00:00:00 GMT 2016 bthomps1 Bald cypress Taxodium distichum 50% Leaf Fall 38.195980000000000 -85.534280000000000 72636
Mon Nov 21 00:00:00 GMT 2016 MBGYouthandFamily Bald cypress Taxodium distichum Leaves Unfolding (Late) 38.614211100000000 -90.258243700000000 73881
Mon Nov 21 00:00:00 GMT 2016 MBGYouthandFamily Bald cypress Taxodium distichum Leaves Changing Color (Late) 38.614211100000000 -90.258243700000000 73882
Mon Nov 21 00:00:00 GMT 2016 MBGYouthandFamily Bald cypress Taxodium distichum Leaves Dropping (Middle) 38.614211100000000 -90.258243700000000 73883
Mon Nov 21 00:00:00 GMT 2016 MBGYouthandFamily Bald cypress Taxodium distichum Flowers (None) 38.614211100000000 -90.258243700000000 73884
Mon Nov 21 00:00:00 GMT 2016 MBGYouthandFamily Bald cypress Taxodium distichum Fruit (Late) 38.614211100000000 -90.258243700000000 73885
Mon Nov 21 00:00:00 GMT 2016 MBGYouthandFamily Bald cypress Taxodium distichum Leaves Unfolding (Late) 38.614185200000000 -90.258003000000000 73886
Mon Nov 21 00:00:00 GMT 2016 MBGYouthandFamily Bald cypress Taxodium distichum Leaves Changing Color (Late) 38.614185200000000 -90.258003000000000 73887
Mon Nov 21 00:00:00 GMT 2016 MBGYouthandFamily Bald cypress Taxodium distichum Leaves Dropping (Middle) 38.614185200000000 -90.258003000000000 73888
Mon Nov 21 00:00:00 GMT 2016 MBGYouthandFamily Bald cypress Taxodium distichum Flowers (None) 38.614185200000000 -90.258003000000000 73889
Mon Nov 21 00:00:00 GMT 2016 MBGYouthandFamily Bald cypress Taxodium distichum Fruit (Middle) 38.614185200000000 -90.258003000000000 73890
Mon Nov 21 00:00:00 GMT 2016 MBGYouthandFamily Bald cypress Taxodium distichum Leaves Unfolding (Late) 38.611554400000000 -90.259511400000000 73904
Mon Nov 21 00:00:00 GMT 2016 MBGYouthandFamily Bald cypress Taxodium distichum Leaves Changing Color (Late) 38.611554400000000 -90.259511400000000 73905
Mon Nov 21 00:00:00 GMT 2016 MBGYouthandFamily Bald cypress Taxodium distichum Leaves Dropping (Middle) 38.611554400000000 -90.259511400000000 73906
Mon Nov 21 00:00:00 GMT 2016 MBGYouthandFamily Bald cypress Taxodium distichum Flowers (None) 38.611554400000000 -90.259511400000000 73907
Mon Nov 21 00:00:00 GMT 2016 MBGYouthandFamily Bald cypress Taxodium distichum Fruit (Middle) 38.611554400000000 -90.259511400000000 73908
Mon Dec 12 00:00:00 GMT 2016 MBGYouthandFamily Bald cypress Taxodium distichum Leaves Unfolding (None) 38.614211100000000 -90.258243700000000 74272
Mon Dec 12 00:00:00 GMT 2016 MBGYouthandFamily Bald cypress Taxodium distichum Leaves Changing Color (Late) 38.614211100000000 -90.258243700000000 74273
Mon Dec 12 00:00:00 GMT 2016 MBGYouthandFamily Bald cypress Taxodium distichum Leaves Dropping (Late) 38.614211100000000 -90.258243700000000 74274
Mon Dec 12 00:00:00 GMT 2016 MBGYouthandFamily Bald cypress Taxodium distichum Flowers (None) 38.614211100000000 -90.258243700000000 74275
Mon Dec 12 00:00:00 GMT 2016 MBGYouthandFamily Bald cypress Taxodium distichum Fruit (Late) 38.614211100000000 -90.258243700000000 74276
Mon Dec 12 00:00:00 GMT 2016 MBGYouthandFamily Bald cypress Taxodium distichum Leaves Unfolding (None) 38.614185200000000 -90.258003000000000 74277
Mon Dec 12 00:00:00 GMT 2016 MBGYouthandFamily Bald cypress Taxodium distichum Leaves Changing Color (Late) 38.614185200000000 -90.258003000000000 74278
Mon Dec 12 00:00:00 GMT 2016 MBGYouthandFamily Bald cypress Taxodium distichum Leaves Dropping (Middle) 38.614185200000000 -90.258003000000000 74279
Mon Dec 12 00:00:00 GMT 2016 MBGYouthandFamily Bald cypress Taxodium distichum Flowers (None) 38.614185200000000 -90.258003000000000 74280
Mon Dec 12 00:00:00 GMT 2016 MBGYouthandFamily Bald cypress Taxodium distichum Fruit (Late) 38.614185200000000 -90.258003000000000 74281
Mon Dec 12 00:00:00 GMT 2016 MBGYouthandFamily Bald cypress Taxodium distichum Leaves Unfolding (None) 38.611554400000000 -90.259511400000000 74295
Mon Dec 12 00:00:00 GMT 2016 MBGYouthandFamily Bald cypress Taxodium distichum Leaves Changing Color (Late) 38.611554400000000 -90.259511400000000 74296
Mon Dec 12 00:00:00 GMT 2016 MBGYouthandFamily Bald cypress Taxodium distichum Leaves Dropping (Middle) 38.611554400000000 -90.259511400000000 74297
Mon Dec 12 00:00:00 GMT 2016 MBGYouthandFamily Bald cypress Taxodium distichum Flowers (None) 38.611554400000000 -90.259511400000000 74298
Mon Dec 12 00:00:00 GMT 2016 MBGYouthandFamily Bald cypress Taxodium distichum Fruit (Late) 38.611554400000000 -90.259511400000000 74299
Tue Jan 24 00:00:00 GMT 2017 JustinandCameron Bald cypress Taxodium distichum Leaves Unfolding (None) 39.791932000000000 -105.032204000000000 74544
Tue Jan 24 00:00:00 GMT 2017 JustinandCameron Bald cypress Taxodium distichum Leaves Changing Color (None) 39.791932000000000 -105.032204000000000 74545
Tue Jan 24 00:00:00 GMT 2017 JustinandCameron Bald cypress Taxodium distichum Leaves Dropping (None) 39.791932000000000 -105.032204000000000 74546
Tue Jan 24 00:00:00 GMT 2017 JustinandCameron Bald cypress Taxodium distichum Flowers (None) 39.791932000000000 -105.032204000000000 74547
Tue Jan 24 00:00:00 GMT 2017 JustinandCameron Bald cypress Taxodium distichum Fruit (None) 39.791932000000000 -105.032204000000000 74548
Fri Feb 03 00:00:00 GMT 2017 dpalow Bald cypress Taxodium distichum Leaves Unfolding (None) 29.035385000000000 -81.300298000000000 74716
Fri Feb 03 00:00:00 GMT 2017 dpalow Bald cypress Taxodium distichum Leaves Changing Color (Late) 29.035385000000000 -81.300298000000000 74717
Fri Feb 03 00:00:00 GMT 2017 dpalow Bald cypress Taxodium distichum Leaves Dropping (Late) 29.035385000000000 -81.300298000000000 74718
Fri Feb 03 00:00:00 GMT 2017 dpalow Bald cypress Taxodium distichum Flowers (None) 29.035385000000000 -81.300298000000000 74719
Fri Feb 03 00:00:00 GMT 2017 dpalow Bald cypress Taxodium distichum Fruit (None) 29.035385000000000 -81.300298000000000 74720
Tue Feb 07 00:00:00 GMT 2017 MBGYouthandFamily Bald cypress Taxodium distichum Leaves Unfolding (None) 38.614211100000000 -90.258243700000000 74779
Tue Feb 07 00:00:00 GMT 2017 MBGYouthandFamily Bald cypress Taxodium distichum Leaves Changing Color (None) 38.614211100000000 -90.258243700000000 74780
Tue Feb 07 00:00:00 GMT 2017 MBGYouthandFamily Bald cypress Taxodium distichum Leaves Dropping (None) 38.614211100000000 -90.258243700000000 74781
Tue Feb 07 00:00:00 GMT 2017 MBGYouthandFamily Bald cypress Taxodium distichum Flowers (Early) 38.614211100000000 -90.258243700000000 74782
Tue Feb 07 00:00:00 GMT 2017 MBGYouthandFamily Bald cypress Taxodium distichum Fruit (None) 38.614211100000000 -90.258243700000000 74783
Tue Feb 07 00:00:00 GMT 2017 MBGYouthandFamily Bald cypress Taxodium distichum Leaves Unfolding (None) 38.614185200000000 -90.258003000000000 74784
Tue Feb 07 00:00:00 GMT 2017 MBGYouthandFamily Bald cypress Taxodium distichum Leaves Changing Color (None) 38.614185200000000 -90.258003000000000 74785
Tue Feb 07 00:00:00 GMT 2017 MBGYouthandFamily Bald cypress Taxodium distichum Leaves Dropping (None) 38.614185200000000 -90.258003000000000 74786
Tue Feb 07 00:00:00 GMT 2017 MBGYouthandFamily Bald cypress Taxodium distichum Flowers (Early) 38.614185200000000 -90.258003000000000 74787
Tue Feb 07 00:00:00 GMT 2017 MBGYouthandFamily Bald cypress Taxodium distichum Fruit (None) 38.614185200000000 -90.258003000000000 74788
Tue Feb 07 00:00:00 GMT 2017 MBGYouthandFamily Bald cypress Taxodium distichum Leaves Unfolding (None) 38.611554400000000 -90.259511400000000 74804
Tue Feb 07 00:00:00 GMT 2017 MBGYouthandFamily Bald cypress Taxodium distichum Leaves Changing Color (None) 38.611554400000000 -90.259511400000000 74805
Tue Feb 07 00:00:00 GMT 2017 MBGYouthandFamily Bald cypress Taxodium distichum Leaves Dropping (None) 38.611554400000000 -90.259511400000000 74806
Tue Feb 07 00:00:00 GMT 2017 MBGYouthandFamily Bald cypress Taxodium distichum Flowers (Early) 38.611554400000000 -90.259511400000000 74807
Tue Feb 07 00:00:00 GMT 2017 MBGYouthandFamily Bald cypress Taxodium distichum Fruit (None) 38.611554400000000 -90.259511400000000 74808
Mon Mar 06 00:00:00 GMT 2017 bthomps1 Bald cypress Taxodium distichum Bud Burst 38.195980000000000 -85.534280000000000 75233
Mon Mar 13 00:00:00 GMT 2017 MBGYouthandFamily Bald cypress Taxodium distichum Leaves Unfolding (None) 38.611554400000000 -90.259511400000000 75754
Mon Mar 13 00:00:00 GMT 2017 MBGYouthandFamily Bald cypress Taxodium distichum Leaves Changing Color (None) 38.611554400000000 -90.259511400000000 75755
Mon Mar 13 00:00:00 GMT 2017 MBGYouthandFamily Bald cypress Taxodium distichum Leaves Dropping (None) 38.611554400000000 -90.259511400000000 75756
Mon Mar 13 00:00:00 GMT 2017 MBGYouthandFamily Bald cypress Taxodium distichum Flowers (Early) 38.611554400000000 -90.259511400000000 75757
Mon Mar 13 00:00:00 GMT 2017 MBGYouthandFamily Bald cypress Taxodium distichum Fruit (None) 38.611554400000000 -90.259511400000000 75758
Mon Mar 13 00:00:00 GMT 2017 MBGYouthandFamily Bald cypress Taxodium distichum Leaves Unfolding (None) 38.614211100000000 -90.258243700000000 75759
Mon Mar 13 00:00:00 GMT 2017 MBGYouthandFamily Bald cypress Taxodium distichum Leaves Changing Color (None) 38.614211100000000 -90.258243700000000 75760
Mon Mar 13 00:00:00 GMT 2017 MBGYouthandFamily Bald cypress Taxodium distichum Leaves Dropping (None) 38.614211100000000 -90.258243700000000 75761
Mon Mar 13 00:00:00 GMT 2017 MBGYouthandFamily Bald cypress Taxodium distichum Flowers (Middle) 38.614211100000000 -90.258243700000000 75762
Mon Mar 13 00:00:00 GMT 2017 MBGYouthandFamily Bald cypress Taxodium distichum Fruit (None) 38.614211100000000 -90.258243700000000 75763
Mon Mar 13 00:00:00 GMT 2017 MBGYouthandFamily Bald cypress Taxodium distichum Leaves Unfolding (None) 38.614185200000000 -90.258003000000000 75764
Mon Mar 13 00:00:00 GMT 2017 MBGYouthandFamily Bald cypress Taxodium distichum Leaves Changing Color (None) 38.614185200000000 -90.258003000000000 75765
Mon Mar 13 00:00:00 GMT 2017 MBGYouthandFamily Bald cypress Taxodium distichum Leaves Dropping (None) 38.614185200000000 -90.258003000000000 75766
Mon Mar 13 00:00:00 GMT 2017 MBGYouthandFamily Bald cypress Taxodium distichum Flowers (Middle) 38.614185200000000 -90.258003000000000 75767
Mon Mar 13 00:00:00 GMT 2017 MBGYouthandFamily Bald cypress Taxodium distichum Fruit (None) 38.614185200000000 -90.258003000000000 75768
Mon Mar 20 00:00:00 GMT 2017 JustinandCameron Bald cypress Taxodium distichum Leaves Unfolding (None) 39.791932000000000 -105.032204000000000 76043
Mon Mar 20 00:00:00 GMT 2017 JustinandCameron Bald cypress Taxodium distichum Leaves Changing Color (None) 39.791932000000000 -105.032204000000000 76044
Mon Mar 20 00:00:00 GMT 2017 JustinandCameron Bald cypress Taxodium distichum Leaves Dropping (None) 39.791932000000000 -105.032204000000000 76045
Mon Mar 20 00:00:00 GMT 2017 JustinandCameron Bald cypress Taxodium distichum Flowers (None) 39.791932000000000 -105.032204000000000 76046
Mon Mar 20 00:00:00 GMT 2017 JustinandCameron Bald cypress Taxodium distichum Fruit (None) 39.791932000000000 -105.032204000000000 76047
Mon Apr 03 00:00:00 GMT 2017 alexabowman Bald cypress Taxodium distichum Bud Burst 39.167356000000000 -86.526279000000000 77129
Sun Apr 09 00:00:00 GMT 2017 berryan Bald cypress Taxodium distichum All Leaves Unfolded 34.742565000000000 -79.482761000000000 77813
Sat Apr 15 00:00:00 GMT 2017 skflax Bald cypress Taxodium distichum Bud Burst 42.059500000000000 -87.718500000000000 78408
Mon Apr 17 00:00:00 GMT 2017 MBGYouthandFamily Bald cypress Taxodium distichum Leaves Unfolding (Early) 38.614211100000000 -90.258243700000000 79123
Mon Apr 17 00:00:00 GMT 2017 MBGYouthandFamily Bald cypress Taxodium distichum Leaves Changing Color (None) 38.614211100000000 -90.258243700000000 79124
Mon Apr 17 00:00:00 GMT 2017 MBGYouthandFamily Bald cypress Taxodium distichum Leaves Dropping (None) 38.614211100000000 -90.258243700000000 79125
Mon Apr 17 00:00:00 GMT 2017 MBGYouthandFamily Bald cypress Taxodium distichum Flowers (Middle) 38.614211100000000 -90.258243700000000 79126
Mon Apr 17 00:00:00 GMT 2017 MBGYouthandFamily Bald cypress Taxodium distichum Fruit (None) 38.614211100000000 -90.258243700000000 79127
Mon Apr 17 00:00:00 GMT 2017 MBGYouthandFamily Bald cypress Taxodium distichum Leaves Unfolding (Middle) 38.614185200000000 -90.258003000000000 79133
Mon Apr 17 00:00:00 GMT 2017 MBGYouthandFamily Bald cypress Taxodium distichum Leaves Changing Color (None) 38.614185200000000 -90.258003000000000 79134
Mon Apr 17 00:00:00 GMT 2017 MBGYouthandFamily Bald cypress Taxodium distichum Leaves Dropping (None) 38.614185200000000 -90.258003000000000 79135
Mon Apr 17 00:00:00 GMT 2017 MBGYouthandFamily Bald cypress Taxodium distichum Flowers (Middle) 38.614185200000000 -90.258003000000000 79136
Mon Apr 17 00:00:00 GMT 2017 MBGYouthandFamily Bald cypress Taxodium distichum Fruit (None) 38.614185200000000 -90.258003000000000 79137
Mon Apr 17 00:00:00 GMT 2017 MBGYouthandFamily Bald cypress Taxodium distichum Leaves Unfolding (None) 38.611554400000000 -90.259511400000000 79157
Mon Apr 17 00:00:00 GMT 2017 MBGYouthandFamily Bald cypress Taxodium distichum Leaves Changing Color (None) 38.611554400000000 -90.259511400000000 79158
Mon Apr 17 00:00:00 GMT 2017 MBGYouthandFamily Bald cypress Taxodium distichum Leaves Dropping (None) 38.611554400000000 -90.259511400000000 79159
Mon Apr 17 00:00:00 GMT 2017 MBGYouthandFamily Bald cypress Taxodium distichum Flowers (Late) 38.611554400000000 -90.259511400000000 79160
Mon Apr 17 00:00:00 GMT 2017 MBGYouthandFamily Bald cypress Taxodium distichum Fruit (None) 38.611554400000000 -90.259511400000000 79161
Mon Feb 13 00:00:00 GMT 2017 fwitt11 Bald cypress Taxodium distichum Leaves Unfolding (None) 35.534316000000000 -98.706748000000000 80331
Mon Feb 13 00:00:00 GMT 2017 fwitt11 Bald cypress Taxodium distichum Leaves Changing Color (None) 35.534316000000000 -98.706748000000000 80332
Mon Feb 13 00:00:00 GMT 2017 fwitt11 Bald cypress Taxodium distichum Leaves Dropping (None) 35.534316000000000 -98.706748000000000 80333
Mon Feb 13 00:00:00 GMT 2017 fwitt11 Bald cypress Taxodium distichum Flowers (None) 35.534316000000000 -98.706748000000000 80334
Mon Feb 13 00:00:00 GMT 2017 fwitt11 Bald cypress Taxodium distichum Fruit (None) 35.534316000000000 -98.706748000000000 80335
Thu Mar 02 00:00:00 GMT 2017 fwitt11 Bald cypress Taxodium distichum Leaves Unfolding (None) 35.534316000000000 -98.706748000000000 80336
Thu Mar 02 00:00:00 GMT 2017 fwitt11 Bald cypress Taxodium distichum Leaves Changing Color (None) 35.534316000000000 -98.706748000000000 80337
Thu Mar 02 00:00:00 GMT 2017 fwitt11 Bald cypress Taxodium distichum Leaves Dropping (None) 35.534316000000000 -98.706748000000000 80338
Thu Mar 02 00:00:00 GMT 2017 fwitt11 Bald cypress Taxodium distichum Flowers (Early) 35.534316000000000 -98.706748000000000 80339
Thu Mar 02 00:00:00 GMT 2017 fwitt11 Bald cypress Taxodium distichum Fruit (None) 35.534316000000000 -98.706748000000000 80340
Mon Mar 20 00:00:00 GMT 2017 fwitt11 Bald cypress Taxodium distichum Leaves Unfolding (None) 35.534316000000000 -98.706748000000000 80341
Mon Mar 20 00:00:00 GMT 2017 fwitt11 Bald cypress Taxodium distichum Leaves Changing Color (None) 35.534316000000000 -98.706748000000000 80342
Mon Mar 20 00:00:00 GMT 2017 fwitt11 Bald cypress Taxodium distichum Leaves Dropping (None) 35.534316000000000 -98.706748000000000 80343
Mon Mar 20 00:00:00 GMT 2017 fwitt11 Bald cypress Taxodium distichum Flowers (Middle) 35.534316000000000 -98.706748000000000 80344
Mon Mar 20 00:00:00 GMT 2017 fwitt11 Bald cypress Taxodium distichum Fruit (None) 35.534316000000000 -98.706748000000000 80345
Mon Apr 17 00:00:00 GMT 2017 fwitt11 Bald cypress Taxodium distichum Leaves Unfolding (Late) 35.534316000000000 -98.706748000000000 80346
Mon Apr 17 00:00:00 GMT 2017 fwitt11 Bald cypress Taxodium distichum Leaves Changing Color (None) 35.534316000000000 -98.706748000000000 80347
Mon Apr 17 00:00:00 GMT 2017 fwitt11 Bald cypress Taxodium distichum Leaves Dropping (None) 35.534316000000000 -98.706748000000000 80348
Mon Apr 17 00:00:00 GMT 2017 fwitt11 Bald cypress Taxodium distichum Flowers (None) 35.534316000000000 -98.706748000000000 80349
Mon Apr 17 00:00:00 GMT 2017 fwitt11 Bald cypress Taxodium distichum Fruit (None) 35.534316000000000 -98.706748000000000 80350
Fri Apr 28 00:00:00 GMT 2017 JustinandCameron Bald cypress Taxodium distichum Leaves Unfolding (Early) 39.791932000000000 -105.032204000000000 80541
Fri Apr 28 00:00:00 GMT 2017 JustinandCameron Bald cypress Taxodium distichum Leaves Changing Color (None) 39.791932000000000 -105.032204000000000 80542
Fri Apr 28 00:00:00 GMT 2017 JustinandCameron Bald cypress Taxodium distichum Leaves Dropping (None) 39.791932000000000 -105.032204000000000 80543
Fri Apr 28 00:00:00 GMT 2017 JustinandCameron Bald cypress Taxodium distichum Flowers (None) 39.791932000000000 -105.032204000000000 80544
Fri Apr 28 00:00:00 GMT 2017 JustinandCameron Bald cypress Taxodium distichum Fruit (None) 39.791932000000000 -105.032204000000000 80545

*All downloadable materials require the free Adobe Reader.